Siemreap, Cambodia

12:40 PM +07 on September 21, 2017 (GMT +0700)
Siem Reap

Weather History for VDSR - October, 2013

Change the Weather History Date:

Saturday, October 5, 2013

  Actual Average Record
Temperature  
Mean Temperature 80 °F -  
Max Temperature 84 °F - - ()
Min Temperature 77 °F - - ()
Cooling Degree Days 16    
Growing Degree Days 30 (Base 50)    
Moisture  
Dew Point 75 °F    
Average Humidity 86    
Maximum Humidity 94    
Minimum Humidity 70    
Precipitation  
Precipitation 0.00 in - - ()
Sea Level Pressure  
Sea Level Pressure 29.71 in    
Wind  
Wind Speed 5 mph ()    
Max Wind Speed 17 mph    
Max Gust Speed -    
Visibility 5.7 miles    
Events Rain , Thunderstorm    
T = Trace of Precipitation, MM = Missing Value Source: Averaged Metar Reports

Daily Weather History Graph

Daily Weather History Graph

Search for Another Location

Airport or City:

Trip Planner

Search our weather history database for the weather conditions in past years. The results will help you decide how hot, cold, wet, or windy it might be!

Date:

Astronomy

Oct. 05, 2013 Rise Set
Actual Time 5:54 AM +07 5:51 PM +07
Civil Twilight 5:32 AM +07 6:13 PM +07
Nautical Twilight 5:08 AM +07 6:37 PM +07
Astronomical Twilight 4:43 AM +07 7:02 PM +07
Moon 5:52 AM +07 (10/5) 6:01 PM +07 (10/5)
Length of Visible Light 12h 40m
Length of Day
11h 57m
New Moon, 0% of the Moon is Illuminated
Oct 5
New Moon
Oct 12
First Quarter
Oct 19
Full
Oct 27
Last Quarter
Nov 3
New

Hourly Weather History & Observations

Time (+07) Temp. Heat Index Dew Point Humidity Pressure Visibility Wind Dir Wind Speed Gust Speed Precip Events Conditions
12:00 AM 77.0 °F - 75.2 °F 94% 29.74 in 5.6 mi Calm Calm - N/A   Mostly Cloudy
12:30 AM 77.0 °F - 75.2 °F 94% 29.74 in 5.6 mi Calm Calm - N/A   Mostly Cloudy
1:00 AM 77.0 °F - 75.2 °F 94% 29.71 in 5.6 mi Calm Calm - N/A   Mostly Cloudy
7:00 AM 77.0 °F - 75.2 °F 94% 29.74 in 5.6 mi NE 5.8 mph - N/A   Mostly Cloudy
7:30 AM 77.0 °F - 75.2 °F 94% 29.74 in 5.6 mi NE 6.9 mph - N/A   Mostly Cloudy
8:00 AM 78.8 °F - 75.2 °F 89% 29.74 in 5.6 mi NE 8.1 mph - N/A   Mostly Cloudy
8:30 AM 78.8 °F - 75.2 °F 89% 29.77 in 5.6 mi ENE 8.1 mph - N/A   Mostly Cloudy
9:00 AM 80.6 °F 86.2 °F 75.2 °F 84% 29.77 in 5.6 mi ENE 8.1 mph - N/A   Mostly Cloudy
9:30 AM 80.6 °F 86.2 °F 75.2 °F 84% 29.77 in 5.6 mi ENE 10.4 mph - N/A   Mostly Cloudy
10:00 AM 80.6 °F 86.2 °F 75.2 °F 84% 29.77 in 5.6 mi East 6.9 mph - N/A   Mostly Cloudy
10:30 AM 82.4 °F 89.5 °F 75.2 °F 79% 29.77 in 5.6 mi ENE 6.9 mph - N/A   Mostly Cloudy
11:30 AM 82.4 °F 88.2 °F 73.4 °F 74% 29.74 in 5.6 mi East 9.2 mph - N/A   Mostly Cloudy
12:00 PM 82.4 °F 89.5 °F 75.2 °F 79% 29.71 in 6.2 mi East 6.9 mph - N/A   Scattered Clouds
12:30 PM 84.2 °F 92.3 °F 75.2 °F 74% 29.71 in 6.2 mi ENE 5.8 mph - N/A   Scattered Clouds
1:00 PM 78.8 °F - 75.2 °F 89% 29.68 in 6.2 mi ENE 17.3 mph - N/A   Mostly Cloudy
1:30 PM 80.6 °F 86.2 °F 75.2 °F 84% 29.68 in 6.2 mi ENE 12.7 mph - N/A   Mostly Cloudy
2:00 PM 82.4 °F 89.5 °F 75.2 °F 79% 29.65 in 6.2 mi East 10.4 mph - N/A   Mostly Cloudy
2:30 PM 84.2 °F 92.3 °F 75.2 °F 74% 29.65 in 6.2 mi ENE 8.1 mph - N/A   Mostly Cloudy
3:00 PM 84.2 °F 90.9 °F 73.4 °F 70% 29.62 in 6.2 mi East 5.8 mph - N/A   Mostly Cloudy
3:30 PM 84.2 °F 92.3 °F 75.2 °F 74% 29.62 in 6.2 mi SE 4.6 mph - N/A   Mostly Cloudy
4:00 PM 84.2 °F 92.3 °F 75.2 °F 74% 29.62 in 5.6 mi Variable 1.2 mph - N/A Rain Light Rain
4:30 PM 80.6 °F 86.2 °F 75.2 °F 84% 29.62 in 5.6 mi SE 2.3 mph - N/A   Mostly Cloudy
5:30 PM 80.6 °F 86.2 °F 75.2 °F 84% 29.68 in 5.6 mi East 9.2 mph - N/A Rain Light Rain
6:00 PM 80.6 °F 86.2 °F 75.2 °F 84% 29.68 in 5.0 mi East 5.8 mph - N/A Rain , Thunderstorm Light Thunderstorms and Rain
6:30 PM 78.8 °F - 75.2 °F 89% 29.68 in 5.6 mi ENE 5.8 mph - N/A   Mostly Cloudy
7:00 PM 77.0 °F - 75.2 °F 94% 29.68 in 5.6 mi SSE 3.5 mph - N/A   Mostly Cloudy
7:30 PM 78.8 °F - 75.2 °F 89% 29.71 in 5.6 mi ESE 10.4 mph - N/A   Mostly Cloudy
8:00 PM 78.8 °F - 75.2 °F 89% 29.71 in 5.6 mi SE 10.4 mph - N/A   Mostly Cloudy
8:30 PM 78.8 °F - 75.2 °F 89% 29.74 in 5.6 mi ESE 8.1 mph - N/A   Mostly Cloudy
9:00 PM 77.0 °F - 75.2 °F 94% 29.74 in 5.0 mi ESE 11.5 mph - N/A Rain Rain
9:30 PM 77.0 °F - 75.2 °F 94% 29.74 in 5.0 mi East 8.1 mph - N/A Rain Light Rain
10:00 PM 77.0 °F - 75.2 °F 94% 29.74 in 5.6 mi ENE 4.6 mph - N/A   Mostly Cloudy
10:30 PM 77.0 °F - 75.2 °F 94% 29.74 in 5.6 mi ENE 4.6 mph - N/A   Mostly Cloudy
11:00 PM 77.0 °F - 75.2 °F 94% 29.74 in 5.6 mi Calm Calm - N/A   Mostly Cloudy
11:30 PM 77.0 °F - 75.2 °F 94% 29.74 in 5.6 mi Calm Calm - N/A   Unknown